NS930 TJSJ-TFFJ

Flight info

Callsign NS930
Flight time N/A
Altitude 27000
Route SJU RTE2 COY/N0295F170 R760 PJM
Aircraft TBM9/L-SDFGRWY/S

Departure

Time 2026-05-05 16:55
Airport Luis Munoz Marin International Airport (TJSJ)

Arrival

Time N/A
Airport St. Jean Airport (TFFJ)
Time Latitude Longitude Altitude Speed Heading
2026-05-05 16:09 18.44134 -65.99731 12 ft 0 kts 69°
2026-05-05 16:15 18.44123 -65.99727 12 ft 0 kts 214°
2026-05-05 16:47 18.44129 -65.99715 12 ft 9 kts 355°
2026-05-05 16:47 18.44212 -65.99740 12 ft 14 kts 348°
2026-05-05 16:47 18.44292 -65.99793 12 ft 15 kts 285°
2026-05-05 16:48 18.44294 -65.99876 12 ft 8 kts 258°
2026-05-05 16:48 18.44320 -65.99920 12 ft 9 kts 340°
2026-05-05 16:48 18.44382 -65.99925 12 ft 9 kts 31°
2026-05-05 16:48 18.44414 -65.99865 12 ft 10 kts 70°
2026-05-05 16:49 18.44442 -65.99793 12 ft 11 kts 69°
2026-05-05 16:49 18.44470 -65.99712 13 ft 12 kts 60°
2026-05-05 16:49 18.44484 -65.99706 13 ft 8 kts 226°
2026-05-05 16:49 18.44453 -65.99763 12 ft 10 kts 247°
2026-05-05 16:50 18.44412 -65.99866 12 ft 20 kts 249°
2026-05-05 16:50 18.44349 -66.00022 12 ft 25 kts 247°
2026-05-05 16:50 18.44279 -66.00193 12 ft 26 kts 247°
2026-05-05 16:50 18.44206 -66.00373 12 ft 27 kts 245°
2026-05-05 16:51 18.44161 -66.00483 12 ft 1 kts 276°
2026-05-05 16:51 18.44161 -66.00486 12 ft 2 kts 254°
2026-05-05 16:51 18.44092 -66.00552 12 ft 23 kts 236°
2026-05-05 16:51 18.44014 -66.00716 12 ft 26 kts 256°
2026-05-05 16:52 18.43960 -66.00897 12 ft 27 kts 237°
2026-05-05 16:52 18.43890 -66.01077 12 ft 27 kts 246°
2026-05-05 16:52 18.43820 -66.01265 12 ft 20 kts 249°
2026-05-05 16:52 18.43809 -66.01342 12 ft 9 kts 303°
2026-05-05 16:53 18.43868 -66.01379 12 ft 11 kts 338°
2026-05-05 16:53 18.43876 -66.01382 12 ft 0 kts 340°
2026-05-05 16:54 18.43939 -66.01349 12 ft 20 kts 72°
2026-05-05 16:54 18.43989 -66.01211 12 ft 24 kts 68°
2026-05-05 16:54 18.44144 -66.00834 12 ft 89 kts 66°
2026-05-05 16:54 18.44503 -66.00118 228 ft 125 kts 65°
2026-05-05 16:55 18.44926 -65.99239 588 ft 149 kts 67°
2026-05-05 16:55 18.45323 -65.98233 1296 ft 134 kts 84°
2026-05-05 16:55 18.45082 -65.97357 1842 ft 148 kts 141°
2026-05-05 16:55 18.43978 -65.97277 1942 ft 182 kts 207°
2026-05-05 16:56 18.43497 -65.98525 2529 ft 192 kts 277°
2026-05-05 16:56 18.44366 -65.99522 3015 ft 194 kts 346°
2026-05-05 16:56 18.45648 -65.99262 3371 ft 188 kts 36°
2026-05-05 16:56 18.46199 -65.98173 3644 ft 171 kts 94°
2026-05-05 16:57 18.46041 -65.96915 3878 ft 167 kts 103°
2026-05-05 16:57 18.45651 -65.95898 4636 ft 136 kts 135°
2026-05-05 16:57 18.44671 -65.95744 4472 ft 187 kts 201°
2026-05-05 16:57 18.44123 -65.96309 4294 ft 216 kts 238°